nws-alerts: Checking more than four warning/county codes can delay the loading of your pages. You should use a cron job to get the data.
EllijayWeather Station Historical Data
Daily Summary for November 5, 2018 Units:  English    Metric   Both
Daily Weekly Monthly Yearly Custom
  High: Low: Average:
Temperature: 64.6 °F 50.7 °F 57.9 °F
Dew Point: 53.4 °F 33.3 °F 41.3 °F
Humidity: 68% 45% 54%
Wind Speed: 4.0mph 0.0mph 0.1mph
Wind Gust: 7.0mph - -
Wind- - SSE
Pressure: 30.22 in 29.96 in -
Precipitation: 0.24 in    
Historical Graphs
 
 
Tabular Data for November 5, 2018
Time Temperature Dew Point Pressure Wind Wind Speed Wind Gust Humidity Rainfall Rate (Hourly) solar
00:04 52.9 °F 36.1 °F 30.22 in Calm     53% 0.26 in meteobridge W/m2
00:09 53.1 °F 36.0 °F 30.21 in Calm     52% 0.27 in meteobridge W/m2
00:14 53.1 °F 36.0 °F 30.22 in Calm     52% 0.26 in meteobridge W/m2
00:19 53.1 °F 36.0 °F 30.22 in Calm     52% 0.25 in meteobridge W/m2
00:24 53.1 °F 36.0 °F 30.22 in Calm     52% 0.25 in meteobridge W/m2
00:29 53.1 °F 36.0 °F 30.22 in Calm     52% 0.26 in meteobridge W/m2
00:34 53.1 °F 36.0 °F 30.21 in Calm     52% 0.25 in meteobridge W/m2
00:38 53.1 °F 36.0 °F 30.22 in Calm     52% 0.24 in meteobridge W/m2
00:43 53.1 °F 36.0 °F 30.22 in Calm     52% 0.18 in meteobridge W/m2
00:49 53.1 °F 35.4 °F 30.22 in Calm     51% 0.14 in meteobridge W/m2
00:51 53.2 °F 35.6 °F 30.22 in Calm     51% 0.13 in meteobridge W/m2
00:59 53.1 °F 36.0 °F 30.21 in Calm     52% 0.10 in meteobridge W/m2
01:03 53.1 °F 35.4 °F 30.21 in Calm     51% 0.10 in meteobridge W/m2
01:08 53.1 °F 35.4 °F 30.21 in Calm     51% 0.09 in meteobridge W/m2
01:14 53.1 °F 35.4 °F 30.21 in Calm     51% 0.10 in meteobridge W/m2
01:19 53.1 °F 35.4 °F 30.22 in Calm     51% 0.10 in meteobridge W/m2
01:24 53.1 °F 35.4 °F 30.21 in Calm     51% 0.09 in meteobridge W/m2
01:27 53.1 °F 35.4 °F 30.21 in Calm     51% 0.08 in meteobridge W/m2
01:33 53.2 °F 35.6 °F 30.20 in Calm     51% 0.08 in meteobridge W/m2
01:39 53.1 °F 35.4 °F 30.19 in Calm     51% 0.07 in meteobridge W/m2
01:44 53.1 °F 35.4 °F 30.19 in Calm     51% 0.06 in meteobridge W/m2
01:49 53.1 °F 35.4 °F 30.19 in Calm     51% 0.06 in meteobridge W/m2
01:53 53.1 °F 35.4 °F 30.19 in Calm     51% 0.06 in meteobridge W/m2
01:59 53.1 °F 35.4 °F 30.19 in Calm     51% 0.06 in meteobridge W/m2
02:03 53.1 °F 35.4 °F 30.19 in Calm     51% 0.06 in meteobridge W/m2
02:09 53.1 °F 35.4 °F 30.18 in Calm     51% 0.07 in meteobridge W/m2
02:14 53.1 °F 35.4 °F 30.18 in Calm     51% 0.06 in meteobridge W/m2
02:18 53.1 °F 35.4 °F 30.18 in Calm     51% 0.06 in meteobridge W/m2
02:23 53.1 °F 35.4 °F 30.17 in Calm     51% 0.05 in meteobridge W/m2
02:29 53.1 °F 35.4 °F 30.16 in Calm     51% 0.03 in meteobridge W/m2
02:34 53.1 °F 35.4 °F 30.17 in Calm     51% 0.02 in meteobridge W/m2
02:39 53.1 °F 35.4 °F 30.17 in Calm     51% 0.01 in meteobridge W/m2
02:44 53.1 °F 35.4 °F 30.17 in Calm     51% 0.01 in meteobridge W/m2
02:49 53.1 °F 35.4 °F 30.17 in Calm     51% 0.02 in meteobridge W/m2
02:53 53.1 °F 35.4 °F 30.17 in Calm     51% 0.03 in meteobridge W/m2
02:59 53.1 °F 35.4 °F 30.16 in Calm     51% 0.04 in meteobridge W/m2
03:03 52.9 °F 35.2 °F 30.16 in Calm     51% 0.05 in meteobridge W/m2
03:09 52.9 °F 35.2 °F 30.15 in Calm     51% 0.06 in meteobridge W/m2
03:14 52.9 °F 35.2 °F 30.15 in Calm     51% 0.07 in meteobridge W/m2
03:19 52.9 °F 35.2 °F 30.15 in Calm     51% 0.07 in meteobridge W/m2
03:24 52.9 °F 35.2 °F 30.15 in Calm     51% 0.07 in meteobridge W/m2
03:29 52.9 °F 35.2 °F 30.15 in Calm     51% 0.07 in meteobridge W/m2
03:34 52.9 °F 35.2 °F 30.15 in Calm     51% 0.07 in meteobridge W/m2
03:37 52.9 °F 35.2 °F 30.15 in Calm     51% 0.07 in meteobridge W/m2
03:44 52.9 °F 35.2 °F 30.15 in Calm     51% 0.07 in meteobridge W/m2
03:49 52.9 °F 35.2 °F 30.15 in Calm     51% 0.06 in meteobridge W/m2
03:52 52.9 °F 35.2 °F 30.15 in Calm     51% 0.06 in meteobridge W/m2
03:59 52.9 °F 35.2 °F 30.15 in Calm     51% 0.04 in meteobridge W/m2
04:04 52.9 °F 35.2 °F 30.15 in Calm     51% 0.02 in meteobridge W/m2
04:09 52.9 °F 35.2 °F 30.16 in Calm     51% 0.01 in meteobridge W/m2
04:13 52.9 °F 35.2 °F 30.15 in Calm     51% 0.00 in meteobridge W/m2
04:19 52.9 °F 35.2 °F 30.15 in Calm     51% 0.00 in meteobridge W/m2
04:24 52.9 °F 35.2 °F 30.15 in Calm     51% 0.00 in meteobridge W/m2
04:28 52.9 °F 35.2 °F 30.15 in Calm     51% 0.00 in meteobridge W/m2
04:33 52.9 °F 35.2 °F 30.15 in Calm     51% 0.00 in meteobridge W/m2
04:37 52.9 °F 35.2 °F 30.15 in Calm     51% 0.00 in meteobridge W/m2
04:44 52.9 °F 35.2 °F 30.15 in Calm     51% 0.00 in meteobridge W/m2
04:49 52.9 °F 35.2 °F 30.15 in Calm     51% 0.00 in meteobridge W/m2
04:53 52.9 °F 35.2 °F 30.14 in Calm     51% 0.00 in meteobridge W/m2
04:56 52.9 °F 35.2 °F 30.15 in Calm     51% 0.00 in meteobridge W/m2
05:04 52.7 °F 35.1 °F 30.15 in Calm     51% 0.00 in meteobridge W/m2
05:09 52.7 °F 35.1 °F 30.15 in Calm     51% 0.00 in meteobridge W/m2
05:14 52.9 °F 35.2 °F 30.14 in Calm     51% 0.00 in meteobridge W/m2
05:17 52.9 °F 34.7 °F 30.14 in Calm     50% 0.00 in meteobridge W/m2
05:21 52.9 °F 34.7 °F 30.14 in Calm     50% 0.00 in meteobridge W/m2
05:29 52.9 °F 34.7 °F 30.14 in Calm     50% 0.00 in meteobridge W/m2
05:34 52.9 °F 34.7 °F 30.14 in Calm     50% 0.00 in meteobridge W/m2
05:38 52.9 °F 34.7 °F 30.14 in Calm     50% 0.00 in meteobridge W/m2
05:43 52.9 °F 34.7 °F 30.14 in Calm     50% 0.00 in meteobridge W/m2
05:49 53.1 °F 35.4 °F 30.14 in Calm     51% 0.00 in meteobridge W/m2
05:53 53.1 °F 34.9 °F 30.13 in Calm     50% 0.00 in meteobridge W/m2
05:58 53.1 °F 35.4 °F 30.13 in Calm     51% 0.00 in meteobridge W/m2
06:04 52.9 °F 35.2 °F 30.13 in Calm     51% 0.00 in meteobridge W/m2
06:09 52.9 °F 34.7 °F 30.13 in Calm     50% 0.00 in meteobridge W/m2
06:13 52.9 °F 34.7 °F 30.13 in Calm     50% 0.00 in meteobridge W/m2
06:18 52.7 °F 34.5 °F 30.12 in Calm     50% 0.00 in meteobridge W/m2
06:24 52.3 °F 34.7 °F 30.13 in Calm     51% 0.00 in meteobridge W/m2
06:29 52.2 °F 34.5 °F 30.13 in Calm     51% 0.00 in meteobridge W/m2
06:34 52.2 °F 34.5 °F 30.13 in Calm     51% 0.00 in meteobridge W/m2
06:39 52.0 °F 34.3 °F 30.13 in Calm     51% 0.00 in meteobridge W/m2
06:44 51.6 °F 34.2 °F 30.13 in Calm     51% 0.00 in meteobridge W/m2
06:48 51.6 °F 34.2 °F 30.13 in Calm     51% 0.00 in meteobridge W/m2
06:54 51.4 °F 34.0 °F 30.13 in Calm     51% 0.00 in meteobridge W/m2
06:59 51.3 °F 33.8 °F 30.13 in Calm     51% 0.00 in meteobridge W/m2
07:03 51.1 °F 33.6 °F 30.14 in Calm     51% 0.00 in meteobridge W/m2
07:08 50.9 °F 34.0 °F 30.14 in Calm     52% 0.00 in meteobridge W/m2
07:13 50.7 °F 33.3 °F 30.14 in Calm     51% 0.00 in meteobridge W/m2
07:19 50.7 °F 33.3 °F 30.14 in Calm     51% 0.00 in meteobridge W/m2
07:23 50.7 °F 33.3 °F 30.15 in Calm     51% 0.00 in meteobridge W/m2
07:29 50.7 °F 33.3 °F 30.15 in Calm     51% 0.00 in meteobridge W/m2
07:34 50.9 °F 33.4 °F 30.15 in Calm     51% 0.00 in meteobridge W/m2
07:39 51.1 °F 33.6 °F 30.15 in Calm     51% 0.00 in meteobridge W/m2
07:43 51.3 °F 33.8 °F 30.15 in Calm     51% 0.00 in meteobridge W/m2
07:49 51.3 °F 33.8 °F 30.15 in Calm     51% 0.00 in meteobridge W/m2
07:54 51.4 °F 34.0 °F 30.16 in Calm     51% 0.00 in meteobridge W/m2
07:59 51.6 °F 34.2 °F 30.16 in Calm     51% 0.00 in meteobridge W/m2
08:04 51.8 °F 34.2 °F 30.16 in Calm     51% 0.00 in meteobridge W/m2
08:08 52.0 °F 34.3 °F 30.16 in Calm     51% 0.00 in meteobridge W/m2
08:14 52.2 °F 34.5 °F 30.16 in Calm     51% 0.00 in meteobridge W/m2
08:19 52.2 °F 34.5 °F 30.15 in Calm     51% 0.00 in meteobridge W/m2
08:24 52.3 °F 34.2 °F 30.15 in Calm     50% 0.00 in meteobridge W/m2
08:29 52.5 °F 34.3 °F 30.15 in Calm     50% 0.00 in meteobridge W/m2
08:34 52.9 °F 34.7 °F 30.15 in Calm     50% 0.00 in meteobridge W/m2
08:37 52.9 °F 34.7 °F 30.15 in Calm     50% 0.00 in meteobridge W/m2
08:44 53.2 °F 35.1 °F 30.15 in Calm     50% 0.00 in meteobridge W/m2
08:49 53.4 °F 35.2 °F 30.16 in Calm     50% 0.00 in meteobridge W/m2
08:54 53.8 °F 35.6 °F 30.15 in Calm     50% 0.00 in meteobridge W/m2
08:57 54.0 °F 35.8 °F 30.15 in Calm     50% 0.00 in meteobridge W/m2
09:04 54.1 °F 36.0 °F 30.15 in Calm     50% 0.00 in meteobridge W/m2
09:09 54.5 °F 35.8 °F 30.15 in Calm     49% 0.00 in meteobridge W/m2
09:14 54.7 °F 36.0 °F 30.15 in Calm     49% 0.00 in meteobridge W/m2
09:18 54.9 °F 36.1 °F 30.15 in Calm     49% 0.00 in meteobridge W/m2
09:24 55.2 °F 36.3 °F 30.15 in Calm     49% 0.00 in meteobridge W/m2
09:29 55.4 °F 36.5 °F 30.15 in Calm     49% 0.00 in meteobridge W/m2
09:34 55.8 °F 36.3 °F 30.16 in Calm     48% 0.00 in meteobridge W/m2
09:39 55.9 °F 36.5 °F 30.16 in Calm     48% 0.00 in meteobridge W/m2
09:43 56.1 °F 36.7 °F 30.16 in Calm     48% 0.00 in meteobridge W/m2
09:49 56.5 °F 37.0 °F 30.16 in Calm     48% 0.00 in meteobridge W/m2
09:52 56.7 °F 37.2 °F 30.16 in Calm     48% 0.00 in meteobridge W/m2
09:59 57.2 °F 37.8 °F 30.16 in Calm     48% 0.00 in meteobridge W/m2
10:00 57.2 °F 37.8 °F 30.16 in Calm     48% 0.00 in meteobridge W/m2
10:09 57.9 °F 37.8 °F 30.16 in Calm     47% 0.00 in meteobridge W/m2
10:14 58.3 °F 38.1 °F 30.15 in Calm     47% 0.00 in meteobridge W/m2
10:19 58.6 °F 38.5 °F 30.15 in Calm     47% 0.00 in meteobridge W/m2
10:23 58.8 °F 38.7 °F 30.16 in Calm     47% 0.00 in meteobridge W/m2
10:29 59.0 °F 38.3 °F 30.15 in Calm     46% 0.00 in meteobridge W/m2
10:34 59.4 °F 38.7 °F 30.15 in Calm     46% 0.00 in meteobridge W/m2
10:38 59.4 °F 38.7 °F 30.15 in Calm     46% 0.00 in meteobridge W/m2
10:42 59.2 °F 38.5 °F 30.15 in Calm     46% 0.00 in meteobridge W/m2
10:48 59.4 °F 38.7 °F 30.15 in Calm     46% 0.00 in meteobridge W/m2
10:54 59.7 °F 38.8 °F 30.15 in Calm     46% 0.00 in meteobridge W/m2
10:59 59.7 °F 38.8 °F 30.15 in Calm     46% 0.00 in meteobridge W/m2
11:04 60.1 °F 39.2 °F 30.15 in Calm     46% 0.00 in meteobridge W/m2
11:09 60.1 °F 39.2 °F 30.15 in Calm     46% 0.00 in meteobridge W/m2
11:14 59.9 °F 39.0 °F 30.15 in Calm     46% 0.00 in meteobridge W/m2
11:18 59.9 °F 38.5 °F 30.15 in Calm     45% 0.00 in meteobridge W/m2
11:22 60.1 °F 38.7 °F 30.14 in Calm     45% 0.00 in meteobridge W/m2
11:28 60.3 °F 38.8 °F 30.14 in Calm     45% 0.00 in meteobridge W/m2
11:34 60.3 °F 38.8 °F 30.14 in Calm     45% 0.00 in meteobridge W/m2
11:39 60.3 °F 38.8 °F 30.14 in Calm     45% 0.00 in meteobridge W/m2
11:44 60.3 °F 38.8 °F 30.13 in Calm     45% 0.00 in meteobridge W/m2
11:49 60.3 °F 38.8 °F 30.13 in Calm     45% 0.00 in meteobridge W/m2
11:54 60.3 °F 38.8 °F 30.13 in Calm     45% 0.00 in meteobridge W/m2
11:59 60.4 °F 39.0 °F 30.13 in Calm     45% 0.00 in meteobridge W/m2
12:03 60.6 °F 39.2 °F 30.13 in Calm     45% 0.00 in meteobridge W/m2
12:08 60.8 °F 39.4 °F 30.13 in Calm     45% 0.00 in meteobridge W/m2
12:14 61.2 °F 39.7 °F 30.13 in Calm     45% 0.00 in meteobridge W/m2
12:18 61.2 °F 39.7 °F 30.12 in Calm     45% 0.00 in meteobridge W/m2
12:24 61.2 °F 39.7 °F 30.12 in Calm   1.0 mph 45% 0.00 in meteobridge W/m2
12:29 61.2 °F 39.7 °F 30.11 in Calm   3.0 mph 45% 0.00 in meteobridge W/m2
12:34 61.3 °F 40.5 °F 30.11 in Calm   1.0 mph 46% 0.00 in meteobridge W/m2
12:39 61.5 °F 40.5 °F 30.11 in Calm     46% 0.00 in meteobridge W/m2
12:44 61.7 °F 41.2 °F 30.11 in Calm     47% 0.00 in meteobridge W/m2
12:49 61.9 °F 41.9 °F 30.11 in Calm     48% 0.00 in meteobridge W/m2
12:54 61.9 °F 43.0 °F 30.10 in Calm     50% 0.00 in meteobridge W/m2
12:59 61.9 °F 43.5 °F 30.10 in Calm     51% 0.00 in meteobridge W/m2
13:04 61.9 °F 44.6 °F 30.10 in Calm   4.0 mph 53% 0.00 in meteobridge W/m2
13:09 62.2 °F 46.8 °F 30.09 in Calm     57% 0.00 in meteobridge W/m2
13:13 62.8 °F 47.8 °F 30.09 in Calm   4.0 mph 58% 0.00 in meteobridge W/m2
13:19 63.1 °F 49.5 °F 30.09 in Calm     61% 0.00 in meteobridge W/m2
13:24 63.5 °F 50.7 °F 30.09 in Calm   2.0 mph 63% 0.00 in meteobridge W/m2
13:29 63.7 °F 50.0 °F 30.09 in Calm     61% 0.00 in meteobridge W/m2
13:33 63.9 °F 51.1 °F 30.08 in Calm   1.0 mph 63% 0.00 in meteobridge W/m2
13:39 64.2 °F 50.9 °F 30.08 in Calm     62% 0.00 in meteobridge W/m2
13:42 64.2 °F 52.7 °F 30.07 in Calm   1.0 mph 66% 0.00 in meteobridge W/m2
13:49 64.0 °F 52.9 °F 30.07 in Calm   1.0 mph 67% 0.00 in meteobridge W/m2
13:54 63.9 °F 52.3 °F 30.07 in Calm     66% 0.00 in meteobridge W/m2
13:59 63.9 °F 51.4 °F 30.06 in Calm     64% 0.00 in meteobridge W/m2
14:02 63.9 °F 52.3 °F 30.06 in Calm     66% 0.00 in meteobridge W/m2
14:09 63.7 °F 52.5 °F 30.06 in Calm     67% 0.00 in meteobridge W/m2
14:13 63.7 °F 52.2 °F 30.06 in Calm     66% 0.00 in meteobridge W/m2
14:19 63.9 °F 52.7 °F 30.06 in Calm   4.0 mph 67% 0.00 in meteobridge W/m2
14:24 63.9 °F 52.7 °F 30.06 in Calm     67% 0.00 in meteobridge W/m2
14:27 63.9 °F 52.3 °F 30.06 in Calm     66% 0.00 in meteobridge W/m2
14:34 63.9 °F 51.1 °F 30.06 in Calm     63% 0.00 in meteobridge W/m2
14:39 64.0 °F 51.3 °F 30.06 in Calm     63% 0.00 in meteobridge W/m2
14:43 63.9 °F 51.8 °F 30.06 in Calm     65% 0.00 in meteobridge W/m2
14:49 63.9 °F 51.4 °F 30.06 in Calm     64% 0.00 in meteobridge W/m2
14:53 64.0 °F 51.6 °F 30.05 in Calm     64% 0.00 in meteobridge W/m2
14:59 64.0 °F 52.5 °F 30.05 in Calm     66% 0.00 in meteobridge W/m2
15:03 64.2 °F 52.7 °F 30.05 in Calm     66% 0.00 in meteobridge W/m2
15:09 64.6 °F 52.9 °F 30.04 in Calm   1.0 mph 66% 0.00 in meteobridge W/m2
15:13 64.4 °F 53.2 °F 30.04 in Calm     67% 0.00 in meteobridge W/m2
15:19 64.2 °F 53.4 °F 30.04 in Calm     68% 0.00 in meteobridge W/m2
15:24 64.0 °F 52.9 °F 30.04 in Calm     67% 0.00 in meteobridge W/m2
15:29 63.9 °F 52.7 °F 30.03 in Calm     67% 0.00 in meteobridge W/m2
15:34 63.5 °F 52.0 °F 30.03 in Calm   1.0 mph 66% 0.00 in meteobridge W/m2
15:39 63.3 °F 51.4 °F 30.03 in Calm     65% 0.00 in meteobridge W/m2
15:44 63.1 °F 50.7 °F 30.03 in SSE 2.0 mph 2.0 mph 64% 0.00 in meteobridge W/m2
15:49 63.0 °F 50.2 °F 30.03 in Calm     63% 0.00 in meteobridge W/m2
15:54 63.0 °F 50.2 °F 30.03 in Calm     63% 0.00 in meteobridge W/m2
15:59 62.8 °F 49.6 °F 30.03 in Calm     62% 0.00 in meteobridge W/m2
16:04 62.8 °F 49.6 °F 30.03 in Calm   1.0 mph 62% 0.00 in meteobridge W/m2
16:09 62.6 °F 49.5 °F 30.03 in Calm   1.0 mph 62% 0.00 in meteobridge W/m2
16:14 62.4 °F 49.3 °F 30.03 in Calm     62% 0.00 in meteobridge W/m2
16:19 62.2 °F 48.6 °F 30.03 in Calm     61% 0.00 in meteobridge W/m2
16:24 62.2 °F 48.2 °F 30.03 in Calm     60% 0.00 in meteobridge W/m2
16:28 62.2 °F 48.2 °F 30.02 in Calm     60% 0.00 in meteobridge W/m2
16:33 62.2 °F 48.2 °F 30.02 in Calm   4.0 mph 60% 0.00 in meteobridge W/m2
16:38 62.2 °F 48.2 °F 30.02 in Calm   1.0 mph 60% 0.00 in meteobridge W/m2
16:43 62.1 °F 47.5 °F 30.03 in Calm     59% 0.00 in meteobridge W/m2
16:49 62.1 °F 47.5 °F 30.03 in Calm   2.0 mph 59% 0.00 in meteobridge W/m2
16:53 62.1 °F 47.5 °F 30.03 in Calm   1.0 mph 59% 0.00 in meteobridge W/m2
16:59 61.9 °F 47.5 °F 30.03 in Calm   1.0 mph 59% 0.00 in meteobridge W/m2
17:04 61.9 °F 47.5 °F 30.03 in Calm   1.0 mph 59% 0.00 in meteobridge W/m2
17:09 61.9 °F 46.9 °F 30.03 in Calm     58% 0.00 in meteobridge W/m2
17:13 61.7 °F 46.8 °F 30.03 in Calm   2.0 mph 58% 0.00 in meteobridge W/m2
17:19 61.5 °F 46.6 °F 30.03 in Calm     58% 0.00 in meteobridge W/m2
17:22 61.5 °F 46.2 °F 30.03 in Calm     57% 0.00 in meteobridge W/m2
17:29 61.3 °F 46.0 °F 30.03 in Calm     57% 0.00 in meteobridge W/m2
17:34 61.3 °F 46.0 °F 30.03 in Calm   2.0 mph 57% 0.00 in meteobridge W/m2
17:38 61.3 °F 46.0 °F 30.04 in Calm     57% 0.00 in meteobridge W/m2
17:43 61.2 °F 45.9 °F 30.04 in Calm     57% 0.00 in meteobridge W/m2
17:49 61.2 °F 45.9 °F 30.04 in Calm     57% 0.00 in meteobridge W/m2
17:54 61.0 °F 45.1 °F 30.05 in Calm     56% 0.00 in meteobridge W/m2
17:58 61.0 °F 45.1 °F 30.05 in Calm     56% 0.00 in meteobridge W/m2
18:02 61.0 °F 44.8 °F 30.05 in Calm     55% 0.00 in meteobridge W/m2
18:07 61.0 °F 44.8 °F 30.06 in Calm     55% 0.00 in meteobridge W/m2
18:14 61.0 °F 44.8 °F 30.06 in Calm     55% 0.00 in meteobridge W/m2
18:19 60.8 °F 44.6 °F 30.06 in SSE 2.0 mph 2.0 mph 55% 0.00 in meteobridge W/m2
18:24 60.6 °F 44.4 °F 30.06 in Calm   2.0 mph 55% 0.00 in meteobridge W/m2
18:29 60.6 °F 44.4 °F 30.06 in SSE 2.0 mph 2.0 mph 55% 0.00 in meteobridge W/m2
18:33 60.6 °F 44.8 °F 30.05 in Calm     56% 0.00 in meteobridge W/m2
18:38 60.6 °F 44.8 °F 30.05 in Calm   2.0 mph 56% 0.00 in meteobridge W/m2
18:44 60.4 °F 44.6 °F 30.05 in Calm   4.0 mph 56% 0.00 in meteobridge W/m2
18:49 60.4 °F 44.6 °F 30.04 in Calm     56% 0.00 in meteobridge W/m2
18:54 60.4 °F 44.6 °F 30.04 in Calm     56% 0.00 in meteobridge W/m2
18:58 60.4 °F 44.6 °F 30.04 in Calm   5.0 mph 56% 0.00 in meteobridge W/m2
19:04 60.4 °F 44.6 °F 30.04 in SSE 0.9 mph 2.0 mph 56% 0.00 in meteobridge W/m2
19:09 60.4 °F 44.6 °F 30.05 in Calm   1.0 mph 56% 0.00 in meteobridge W/m2
19:14 60.4 °F 44.6 °F 30.05 in Calm   1.0 mph 56% 0.00 in meteobridge W/m2
19:19 60.4 °F 44.6 °F 30.04 in Calm     56% 0.00 in meteobridge W/m2
19:24 60.3 °F 45.0 °F 30.05 in Calm   2.0 mph 57% 0.00 in meteobridge W/m2
19:28 60.3 °F 45.0 °F 30.05 in SSE 0.9 mph 4.0 mph 57% 0.00 in meteobridge W/m2
19:34 60.3 °F 44.4 °F 30.04 in Calm   4.0 mph 56% 0.00 in meteobridge W/m2
19:38 60.3 °F 45.0 °F 30.04 in Calm   1.0 mph 57% 0.00 in meteobridge W/m2
19:44 60.3 °F 45.0 °F 30.04 in SE 0.9 mph 5.0 mph 57% 0.00 in meteobridge W/m2
19:48 60.3 °F 45.0 °F 30.04 in SSE 4.0 mph 7.0 mph 57% 0.00 in meteobridge W/m2
19:54 60.3 °F 45.0 °F 30.04 in Calm     57% 0.00 in meteobridge W/m2
19:59 60.3 °F 45.5 °F 30.04 in SE 2.0 mph 2.0 mph 58% 0.00 in meteobridge W/m2
20:03 60.3 °F 45.5 °F 30.04 in Calm   2.0 mph 58% 0.00 in meteobridge W/m2
20:09 60.4 °F 45.7 °F 30.05 in SE 2.0 mph 2.0 mph 58% 0.00 in meteobridge W/m2
20:14 60.4 °F 45.7 °F 30.04 in Calm     58% 0.00 in meteobridge W/m2
20:19 60.4 °F 45.7 °F 30.04 in Calm   1.0 mph 58% 0.00 in meteobridge W/m2
20:24 60.4 °F 45.7 °F 30.03 in Calm   2.0 mph 58% 0.00 in meteobridge W/m2
20:29 60.4 °F 45.7 °F 30.03 in Calm   4.0 mph 58% 0.00 in meteobridge W/m2
20:34 60.4 °F 45.7 °F 30.03 in Calm     58% 0.00 in meteobridge W/m2
20:38 60.4 °F 45.7 °F 30.03 in Calm     58% 0.00 in meteobridge W/m2
20:44 60.4 °F 45.7 °F 30.03 in Calm   2.0 mph 58% 0.00 in meteobridge W/m2
20:47 60.4 °F 45.7 °F 30.03 in Calm     58% 0.00 in meteobridge W/m2
20:54 60.4 °F 45.7 °F 30.03 in Calm   1.0 mph 58% 0.00 in meteobridge W/m2
20:59 60.4 °F 45.7 °F 30.03 in Calm     58% 0.00 in meteobridge W/m2
21:04 60.4 °F 45.1 °F 30.03 in SE 0.9 mph 1.0 mph 57% 0.00 in meteobridge W/m2
21:08 60.6 °F 45.7 °F 30.03 in Calm   4.0 mph 58% 0.00 in meteobridge W/m2
21:14 60.6 °F 45.7 °F 30.03 in SE 0.9 mph 1.0 mph 58% 0.00 in meteobridge W/m2
21:19 60.8 °F 45.9 °F 30.03 in Calm   5.0 mph 58% 0.00 in meteobridge W/m2
21:23 60.8 °F 46.4 °F 30.03 in Calm   4.0 mph 59% 0.00 in meteobridge W/m2
21:29 61.0 °F 46.6 °F 30.03 in Calm   2.0 mph 59% 0.00 in meteobridge W/m2
21:34 61.2 °F 46.8 °F 30.03 in Calm     59% 0.00 in meteobridge W/m2
21:39 61.2 °F 46.8 °F 30.03 in Calm   1.0 mph 59% 0.00 in meteobridge W/m2
21:44 61.2 °F 46.8 °F 30.03 in Calm     59% 0.00 in meteobridge W/m2
21:47 61.2 °F 46.8 °F 30.03 in Calm     59% 0.00 in meteobridge W/m2
21:54 61.2 °F 46.8 °F 30.03 in Calm     59% 0.00 in meteobridge W/m2
21:59 61.2 °F 46.8 °F 30.03 in Calm   1.0 mph 59% 0.00 in meteobridge W/m2
22:04 61.2 °F 46.8 °F 30.03 in Calm     59% 0.00 in meteobridge W/m2
22:09 61.0 °F 46.6 °F 30.03 in Calm   1.0 mph 59% 0.00 in meteobridge W/m2
22:14 61.0 °F 46.6 °F 30.03 in Calm     59% 0.00 in meteobridge W/m2
22:19 61.0 °F 46.6 °F 30.03 in Calm     59% 0.00 in meteobridge W/m2
22:24 61.0 °F 46.6 °F 30.03 in Calm     59% 0.00 in meteobridge W/m2
22:27 61.0 °F 46.6 °F 30.03 in Calm     59% 0.00 in meteobridge W/m2
22:34 61.0 °F 46.0 °F 30.02 in Calm   4.0 mph 58% 0.00 in meteobridge W/m2
22:39 61.0 °F 46.0 °F 30.02 in Calm     58% 0.00 in meteobridge W/m2
22:43 61.0 °F 46.0 °F 30.02 in Calm     58% 0.00 in meteobridge W/m2
22:47 61.2 °F 46.2 °F 30.01 in Calm     58% 0.00 in meteobridge W/m2
22:53 61.2 °F 45.9 °F 29.99 in Calm     57% 0.00 in meteobridge W/m2
22:57 61.2 °F 45.3 °F 29.99 in SSE 0.9 mph 1.0 mph 56% 0.00 in meteobridge W/m2
23:04 61.3 °F 45.5 °F 29.99 in Calm     56% 0.00 in meteobridge W/m2
23:09 61.3 °F 45.5 °F 29.98 in Calm     56% 0.00 in meteobridge W/m2
23:14 61.3 °F 45.5 °F 29.98 in Calm   4.0 mph 56% 0.00 in meteobridge W/m2
23:19 61.3 °F 46.0 °F 29.98 in Calm   4.0 mph 57% 0.00 in meteobridge W/m2
23:23 61.5 °F 46.2 °F 29.98 in SSE 0.9 mph 1.0 mph 57% 0.00 in meteobridge W/m2
23:28 61.5 °F 46.2 °F 29.98 in Calm     57% 0.00 in meteobridge W/m2
23:32 61.5 °F 46.2 °F 29.97 in SSW 2.0 mph 2.0 mph 57% 0.00 in meteobridge W/m2
23:39 61.5 °F 46.6 °F 29.96 in Calm   4.0 mph 58% 0.00 in meteobridge W/m2
23:43 61.5 °F 46.6 °F 29.96 in SSE 0.9 mph 1.0 mph 58% 0.00 in meteobridge W/m2
23:49 61.5 °F 46.6 °F 29.97 in Calm   1.0 mph 58% 0.00 in meteobridge W/m2
23:54 61.5 °F 46.6 °F 29.96 in Calm   4.0 mph 58% 0.00 in meteobridge W/m2
23:58 61.5 °F 46.6 °F 29.97 in Calm     58% 0.00 in meteobridge W/m2
EllijayWeather
Compliments of Weather Underground - 2.5 mb